Find Starlink 32121

NORAD ID: 60264 Int'l Des: 2024-131 Owner: SPXS Country: US Constellation: starlink operational
LEOCIRCULAR

現在のビュー

3D地球を読み込み中...

About Starlink 32121

Starlink 32121 (NORAD 60264) is a starlink constellation satellite (v2 mini) launched Jul 27, 2024 by SPXS of US. It operates in LEO, CIRCULAR orbit with a mass of 730.00 kg.

次回通過

Passes for default location (London). Set your location on the main map for personalized predictions.

高度履歴

Loading altitude history...

軌道要素

1 60264U 24131K 26237.29489951 .00001325 00000-0 54461-4 0 9991
2 60264 53.1623 348.5130 0002934 103.0792 257.0538 15.31711249117591
Epoch: Aug 25, 2026 • Age: 6 hours

現在のステータス

高度 477.4 km
遠地点 / 近地点 N/A
速度 7.63 km/s
衛星直下点 -21.97°S, 20.95°E
打ち上げ日 Jul 27, 2024
運用期間 2 years
タイプ internet

技術仕様

分類 Payload
質量 730.00 kg
乾燥質量 700.00 kg
総質量 730.00 kg
長さ 0.30 m
直径 4.10 m
スパン 29.00 m
形状 Box + pan
製造者 SPXS
バスタイプ Starlink V2M
フェーズステータス In Orbit
所有者/国 SPXS/US

Most Searched